�N����,����,�~����,�C��,���x,�C��,����,���ϕ���,�ő�u�ԕ���,�ő厞����,���˗�,�I�_���x,�n�����x,�ő啗���N��,DTYPE
"22/07/07","00:10",0.0,24.4,85.6,1003.4,339.4,1.7,3.1,341.6,0.00,21.9,25.1,"00:00:16",1
"22/07/07","00:20",0.0,24.5,85.6,1003.6,332.8,1.8,3.4,329.3,0.00,22.0,25.1,"00:14:24",1
"22/07/07","00:30",0.0,24.6,85.4,1004.1,330.9,1.8,2.8,342.4,0.00,22.0,25.0,"00:29:28",1
"22/07/07","00:40",0.0,24.5,85.4,1003.4,331.3,2.0,3.5,337.8,0.00,21.9,25.2,"00:30:02",1
"22/07/07","00:50",0.0,24.5,85.5,1003.8,331.0,2.2,4.2,350.4,0.00,21.9,25.2,"00:46:24",1
"22/07/07","01:00",0.0,24.5,85.4,1003.6,336.5,1.7,2.8,347.0,0.00,21.9,25.1,"00:58:00",1
"22/07/07","01:10",0.0,24.2,85.9,1003.1,339.7,1.8,3.4,329.9,0.00,21.7,24.9,"01:06:24",1
"22/07/07","01:20",0.0,24.1,86.5,1003.6,344.2,2.0,3.4,349.1,0.00,21.7,25.0,"01:14:48",1
"22/07/07","01:30",0.0,24.1,86.8,1003.6,339.5,2.1,3.7,344.8,0.00,21.8,24.9,"01:22:48",1
"22/07/07","01:40",0.0,24.0,87.2,1003.1,344.9,2.1,3.9,349.1,0.00,21.8,24.7,"01:39:20",1
"22/07/07","01:50",0.0,24.1,87.3,1003.6,339.5,2.3,3.4,333.0,0.00,21.9,24.8,"01:42:00",1
"22/07/07","02:00",0.0,24.0,87.4,1003.4,340.9,2.3,3.7,339.0,0.00,21.8,24.9,"01:53:04",1
"22/07/07","02:10",0.0,24.2,87.5,1003.4,336.8,2.5,4.3,312.9,0.00,22.0,24.8,"02:06:00",1
"22/07/07","02:20",0.0,24.1,87.6,1003.6,337.8,2.5,4.2,343.7,0.00,22.0,24.7,"02:18:00",1
"22/07/07","02:30",0.0,24.1,87.7,1003.1,336.3,2.6,4.4,339.5,0.00,22.0,24.8,"02:21:12",1
"22/07/07","02:40",0.0,24.0,87.8,1003.1,335.6,2.6,4.7,345.3,0.00,21.9,24.7,"02:39:28",1
"22/07/07","02:50",0.0,24.0,88.0,1003.6,336.9,2.5,3.6,335.5,0.00,21.9,24.7,"02:46:08",1
"22/07/07","03:00",0.0,23.9,88.2,1003.4,343.5,2.1,3.4,345.3,0.00,21.9,24.7,"02:53:04",1
"22/07/07","03:10",0.0,23.9,88.4,1003.6,336.8,2.5,4.3,333.5,0.00,21.9,24.6,"03:08:56",1
"22/07/07","03:20",0.0,23.9,88.5,1003.8,333.8,2.8,4.9,345.1,0.00,21.9,24.8,"03:11:12",1
"22/07/07","03:30",0.0,23.8,88.6,1003.4,335.3,2.3,4.2,339.7,0.00,21.8,24.9,"03:26:00",1
"22/07/07","03:40",0.0,23.7,88.8,1003.6,336.4,2.5,4.4,329.1,0.00,21.8,24.6,"03:32:00",1
"22/07/07","03:50",0.0,23.6,89.0,1003.6,338.9,2.5,3.6,347.6,0.00,21.7,24.6,"03:40:56",1
"22/07/07","04:00",0.0,23.7,89.1,1003.1,339.0,2.5,3.7,350.2,0.00,21.8,24.8,"03:57:12",1
"22/07/07","04:10",0.0,23.7,89.2,1003.4,333.2,2.2,3.5,322.8,0.00,21.9,24.6,"04:03:20",1
"22/07/07","04:20",0.0,23.8,89.3,1003.4,334.6,2.5,3.7,348.4,0.00,22.0,24.5,"04:10:32",1
"22/07/07","04:30",0.0,23.7,89.4,1003.6,339.3,2.2,4.0,348.3,0.00,21.9,24.5,"04:26:32",1
"22/07/07","04:40",0.0,23.7,89.4,1003.6,331.7,2.3,4.0,336.7,0.00,21.9,24.4,"04:34:08",1
"22/07/07","04:50",0.0,23.6,89.5,1004.1,337.4,2.3,3.5,345.0,0.00,21.8,24.6,"04:44:56",1
"22/07/07","05:00",0.0,23.6,89.6,1003.8,331.5,2.5,4.1,336.8,0.00,21.8,24.7,"04:56:08",1
"22/07/07","05:10",0.0,23.5,89.7,1004.5,336.2,2.1,3.5,327.2,0.00,21.7,24.3,"05:04:48",1
"22/07/07","05:20",0.0,23.4,90.0,1004.3,321.8,1.7,3.9,345.0,0.00,21.7,24.3,"05:10:32",1
"22/07/07","05:30",0.0,23.4,90.1,1004.1,331.2,1.7,3.1,316.9,0.00,21.7,24.4,"05:25:52",1
"22/07/07","05:40",0.0,23.5,90.3,1004.1,329.2,1.8,3.1,343.6,0.00,21.9,24.4,"05:31:44",1
"22/07/07","05:50",0.0,23.6,90.4,1004.3,326.9,2.2,3.4,350.6,0.00,22.0,24.5,"05:43:52",1
"22/07/07","06:00",0.0,23.6,90.4,1004.5,331.8,1.8,3.6,328.9,0.00,22.0,24.5,"05:57:12",1
"22/07/07","06:10",0.0,23.7,90.4,1004.3,328.6,2.6,4.4,340.7,0.00,22.1,24.5,"06:06:08",1
"22/07/07","06:20",0.0,23.8,90.3,1004.8,334.4,2.1,3.6,325.8,0.01,22.2,24.5,"06:11:52",1
"22/07/07","06:30",0.0,24.0,90.1,1004.5,338.1,2.1,3.3,331.0,0.02,22.3,24.3,"06:25:52",1
"22/07/07","06:40",0.0,24.3,89.7,1004.8,333.3,2.2,3.9,344.4,0.04,22.5,24.2,"06:38:16",1
"22/07/07","06:50",0.0,24.7,89.1,1004.8,332.2,1.8,2.9,344.3,0.06,22.8,24.3,"06:46:48",1
"22/07/07","07:00",0.0,25.1,88.2,1004.8,335.3,1.8,2.8,332.5,0.07,23.0,24.4,"06:50:32",1
"22/07/07","07:10",0.0,25.4,87.1,1004.8,336.6,2.0,3.6,334.8,0.09,23.1,24.2,"07:06:00",1
"22/07/07","07:20",0.0,25.7,85.6,1004.5,326.4,2.2,4.3,342.7,0.11,23.1,24.4,"07:11:52",1
"22/07/07","07:30",0.0,26.2,84.2,1004.5,329.4,2.0,4.4,343.5,0.14,23.4,24.4,"07:21:28",1
"22/07/07","07:40",0.0,26.5,82.4,1004.1,318.1,1.7,4.1,334.0,0.16,23.3,24.2,"07:39:20",1
"22/07/07","07:50",0.0,26.6,80.9,1004.3,325.8,2.0,4.8,356.8,0.18,23.1,24.2,"07:46:32",1
"22/07/07","08:00",0.0,27.3,79.7,1004.1,311.0,1.1,2.8,318.0,0.21,23.5,24.5,"07:51:28",1
"22/07/07","08:10",0.0,27.7,77.0,1004.1,311.5,1.0,2.1,349.9,0.24,23.3,24.3,"08:01:12",1
"22/07/07","08:20",0.0,28.3,74.3,1003.6,267.1,0.7,2.0,330.4,0.22,23.3,24.5,"08:17:36",1
"22/07/07","08:30",0.0,28.0,73.4,1004.1,267.3,1.1,2.5,234.6,0.14,22.8,24.5,"08:21:28",1
"22/07/07","08:40",0.0,27.6,73.1,1003.6,353.2,1.3,3.4,344.5,0.09,22.4,24.5,"08:36:08",1
"22/07/07","08:50",0.0,27.8,73.1,1003.6,7.6,1.3,2.8,11.1,0.10,22.6,24.3,"08:41:36",1
"22/07/07","09:00",0.0,28.0,72.5,1003.4,354.9,1.1,3.7,344.1,0.16,22.6,24.4,"08:51:52",1
"22/07/07","09:10",0.0,29.4,69.4,1003.6,13.4,1.1,2.4,17.8,0.35,23.3,24.2,"09:01:52",1
"22/07/07","09:20",0.0,30.2,65.6,1004.1,16.2,1.3,3.1,40.8,0.35,23.1,24.5,"09:17:04",1
"22/07/07","09:30",0.0,30.7,62.3,1004.5,24.6,1.1,2.2,36.8,0.40,22.7,24.3,"09:22:08",1
"22/07/07","09:40",0.0,30.8,61.0,1004.8,36.8,1.1,2.8,52.9,0.35,22.4,24.4,"09:35:04",1
"22/07/07","09:50",0.0,30.4,65.0,1004.5,346.1,1.2,2.5,347.9,0.33,23.1,24.4,"09:45:36",1
"22/07/07","10:00",0.0,29.9,65.3,1004.8,354.6,1.6,3.6,344.9,0.27,22.7,24.3,"09:56:08",1
"22/07/07","10:10",0.0,30.4,64.2,1004.8,354.6,1.6,3.4,345.8,0.51,22.9,24.5,"10:03:36",1
"22/07/07","10:20",0.0,31.7,60.4,1004.5,31.4,1.1,2.7,22.3,0.51,23.1,24.7,"10:14:56",1
"22/07/07","10:30",0.0,31.4,60.9,1005.0,358.5,1.6,4.3,349.3,0.53,23.0,24.4,"10:28:56",1
"22/07/07","10:40",0.0,31.7,60.1,1005.0,343.5,1.0,3.3,0.0,0.56,23.0,24.6,"10:30:32",1
"22/07/07","10:50",0.0,31.9,57.9,1005.5,3.4,1.2,2.9,312.8,0.50,22.6,24.9,"10:46:24",1
"22/07/07","11:00",0.0,30.6,60.8,1004.8,339.8,1.6,3.1,350.8,0.27,22.2,24.9,"10:56:48",1
"22/07/07","11:10",0.0,31.1,59.3,1004.5,21.1,1.1,2.5,41.3,0.32,22.3,24.8,"11:04:24",1
"22/07/07","11:20",0.0,31.5,57.3,1004.8,354.2,1.1,3.7,351.3,0.48,22.1,24.9,"11:13:52",1
"22/07/07","11:30",0.0,32.0,57.9,1004.8,354.8,1.5,4.5,344.1,0.51,22.7,24.8,"11:24:32",1
"22/07/07","11:40",0.0,32.2,56.5,1004.5,5.7,1.5,4.1,346.3,0.57,22.5,25.0,"11:31:04",1
"22/07/07","11:50",0.0,32.7,55.3,1004.8,16.2,1.6,3.3,10.0,0.57,22.6,24.9,"11:46:24",1
"22/07/07","12:00",0.0,32.4,54.6,1004.5,12.7,1.3,3.6,339.2,0.49,22.1,25.1,"11:59:04",1
"22/07/07","12:10",0.0,32.7,54.8,1004.5,18.2,1.8,3.2,4.2,0.63,22.5,25.1,"12:04:24",1
"22/07/07","12:20",0.0,33.1,55.1,1004.5,329.7,1.2,3.3,22.8,0.65,22.9,25.2,"12:10:40",1
"22/07/07","12:30",0.0,33.1,53.3,1004.8,262.9,1.3,3.4,334.9,0.64,22.4,25.3,"12:26:48",1
"22/07/07","12:40",0.0,32.3,53.7,1004.5,339.2,1.1,2.9,70.6,0.37,21.8,25.2,"12:38:00",1
"22/07/07","12:50",0.0,32.3,55.3,1004.5,353.0,1.2,3.1,357.4,0.32,22.2,25.3,"12:46:40",1
"22/07/07","13:00",0.0,33.0,52.9,1004.1,341.1,1.2,3.1,354.0,0.63,22.2,25.1,"12:59:20",1
"22/07/07","13:10",0.0,33.4,52.6,1003.8,331.6,1.6,4.0,346.0,0.63,22.4,25.2,"13:01:20",1
"22/07/07","13:20",0.0,33.2,51.0,1004.1,329.8,1.2,3.3,359.1,0.52,21.7,25.6,"13:18:32",1
"22/07/07","13:30",0.0,33.1,50.8,1003.8,328.8,1.6,3.4,339.1,0.62,21.6,25.3,"13:25:04",1
"22/07/07","13:40",0.0,33.7,50.1,1003.8,313.8,1.1,2.6,320.9,0.60,21.9,25.6,"13:36:40",1
"22/07/07","13:50",0.0,34.0,49.3,1003.8,349.7,1.5,4.5,350.8,0.59,21.9,25.6,"13:40:24",1
"22/07/07","14:00",0.0,34.2,46.2,1003.8,17.8,1.6,3.4,345.4,0.55,21.0,25.6,"13:53:44",1
"22/07/07","14:10",0.0,34.1,46.6,1004.1,248.3,1.5,3.2,345.5,0.55,21.1,25.6,"14:07:28",1
"22/07/07","14:20",0.0,33.7,49.4,1003.6,298.5,1.8,4.4,329.9,0.54,21.7,25.5,"14:19:52",1
"22/07/07","14:30",0.0,33.5,48.7,1003.4,314.9,1.8,4.0,354.8,0.52,21.3,25.7,"14:26:00",1
"22/07/07","14:40",0.0,33.7,48.4,1002.9,330.5,1.8,4.1,324.6,0.51,21.3,25.8,"14:30:08",1
"22/07/07","14:50",0.0,34.1,48.8,1002.9,355.0,2.0,3.2,350.6,0.51,21.8,25.8,"14:43:04",1
"22/07/07","15:00",0.0,34.1,47.7,1002.6,336.5,1.5,4.2,340.2,0.49,21.5,25.7,"14:54:40",1
"22/07/07","15:10",0.0,34.2,48.7,1002.9,3.4,1.8,4.3,355.3,0.48,21.9,26.0,"15:00:56",1
"22/07/07","15:20",0.0,33.9,47.1,1002.9,352.6,2.3,4.4,345.7,0.48,21.1,25.9,"15:15:12",1
"22/07/07","15:30",0.0,34.1,46.4,1002.2,352.2,2.0,4.8,338.1,0.46,21.0,26.0,"15:23:04",1
"22/07/07","15:40",0.0,34.1,46.8,1002.6,345.0,2.1,4.0,343.4,0.44,21.2,25.7,"15:30:56",1
"22/07/07","15:50",0.0,33.9,47.0,1002.2,344.0,2.6,4.9,359.7,0.42,21.0,26.0,"15:45:28",1
"22/07/07","16:00",0.0,33.7,46.0,1002.2,341.8,2.6,4.4,354.7,0.40,20.5,26.1,"15:53:28",1
"22/07/07","16:10",0.0,33.7,45.6,1002.6,343.7,2.6,5.9,350.2,0.38,20.4,26.2,"16:00:24",1
"22/07/07","16:20",0.0,33.7,46.8,1002.2,347.1,2.5,5.0,358.6,0.36,20.8,26.2,"16:14:32",1
"22/07/07","16:30",0.0,33.7,43.6,1002.2,356.7,2.6,5.8,359.9,0.33,19.6,26.2,"16:28:24",1
"22/07/07","16:40",0.0,33.4,47.3,1002.2,350.1,2.7,5.6,339.5,0.28,20.7,26.1,"16:35:36",1
"22/07/07","16:50",0.0,33.0,47.3,1001.9,341.1,2.7,4.7,337.6,0.23,20.3,26.2,"16:48:24",1
"22/07/07","17:00",0.0,33.1,48.5,1002.2,352.5,2.1,3.6,349.9,0.21,20.8,26.2,"16:50:08",1
"22/07/07","17:10",0.0,32.9,49.5,1001.9,347.9,2.3,4.0,326.2,0.20,21.0,26.2,"17:05:52",1
"22/07/07","17:20",0.0,32.8,49.7,1001.5,348.3,2.0,4.4,337.0,0.17,21.0,26.3,"17:18:16",1
"22/07/07","17:30",0.0,32.6,50.5,1001.7,345.8,2.5,5.2,350.0,0.06,21.0,26.1,"17:24:08",1
"22/07/07","17:40",0.0,32.3,50.5,1001.5,353.3,2.7,4.8,351.4,0.02,20.8,26.2,"17:31:36",1
"22/07/07","17:50",0.0,32.2,52.0,1001.5,353.0,2.1,4.1,342.8,0.02,21.1,26.3,"17:46:48",1
"22/07/07","18:00",0.0,32.0,51.7,1001.5,349.7,2.6,5.4,353.7,0.01,20.9,26.5,"17:51:36",1
"22/07/07","18:10",0.0,32.0,52.0,1001.5,351.1,2.3,4.8,359.5,0.01,21.0,26.3,"18:04:40",1
"22/07/07","18:20",0.0,31.7,53.6,1001.2,351.0,2.3,4.4,354.1,0.01,21.2,26.4,"18:14:08",1
"22/07/07","18:30",0.0,31.6,54.7,1001.2,345.5,2.1,4.2,339.1,0.01,21.4,26.2,"18:25:52",1
"22/07/07","18:40",0.0,31.3,55.4,1001.2,343.9,2.1,4.1,351.6,0.01,21.3,26.3,"18:33:36",1
"22/07/07","18:50",0.0,31.0,56.4,1001.0,345.5,2.2,4.3,348.6,0.02,21.4,26.4,"18:46:56",1
"22/07/07","19:00",0.0,30.5,57.4,1000.8,343.9,2.5,4.1,322.1,0.01,21.2,26.0,"18:56:32",1
"22/07/07","19:10",0.0,30.1,59.6,1000.5,344.2,2.0,4.2,342.5,0.01,21.4,26.2,"19:01:44",1
"22/07/07","19:20",0.0,29.4,61.5,1000.5,339.5,1.7,2.8,278.8,0.00,21.3,26.1,"19:16:48",1
"22/07/07","19:30",0.0,28.8,63.0,1000.0,334.4,1.8,3.3,334.3,0.00,21.1,26.2,"19:20:16",1
"22/07/07","19:40",0.0,28.5,63.7,1000.0,338.6,2.2,3.4,337.5,0.00,21.0,26.2,"19:37:52",1
"22/07/07","19:50",0.0,28.2,65.2,1000.5,331.7,1.3,2.7,345.3,0.00,21.1,26.2,"19:40:16",1
"22/07/07","20:00",0.0,27.6,66.7,1001.0,334.4,1.5,3.3,333.1,0.00,20.9,26.1,"19:56:00",1
"22/07/07","20:10",0.0,27.4,67.3,1001.2,315.4,1.6,3.5,332.4,0.00,20.8,26.1,"20:06:56",1
"22/07/07","20:20",0.0,27.3,67.9,1001.5,320.4,1.5,2.2,323.6,0.00,20.9,26.2,"20:18:24",1
"22/07/07","20:30",0.0,27.2,68.6,1001.5,336.6,1.5,3.4,334.3,0.00,21.0,26.1,"20:22:24",1
"22/07/07","20:40",0.0,26.7,70.6,1001.5,328.0,0.8,1.8,346.0,0.00,21.0,26.0,"20:30:02",1
"22/07/07","20:50",0.0,26.2,73.5,1001.9,335.7,1.2,2.2,346.7,0.00,21.1,25.9,"20:40:08",1
"22/07/07","21:00",0.0,25.6,75.6,1001.9,311.6,1.2,1.6,307.2,0.00,21.0,25.8,"20:59:28",1
"22/07/07","21:10",0.0,25.3,77.1,1002.2,314.0,1.2,2.0,324.0,0.00,21.0,25.9,"21:00:16",1
"22/07/07","21:20",0.0,25.1,78.2,1002.4,325.3,1.6,3.2,329.6,0.00,21.1,25.8,"21:17:36",1
"22/07/07","21:30",0.0,25.0,78.5,1002.4,313.3,1.5,2.5,298.7,0.00,21.0,25.8,"21:20:56",1
"22/07/07","21:40",0.0,24.8,78.3,1002.9,276.3,0.8,2.0,319.1,0.00,20.8,25.8,"21:30:08",1
"22/07/07","21:50",0.0,24.6,78.4,1003.1,292.6,1.0,1.7,248.5,0.00,20.6,25.6,"21:42:16",1
"22/07/07","22:00",0.0,24.5,78.8,1002.9,316.2,1.0,1.8,341.5,0.00,20.6,25.7,"21:59:44",1
"22/07/07","22:10",0.0,24.3,79.4,1003.1,308.6,1.2,2.2,340.0,0.00,20.5,25.6,"22:01:12",1
"22/07/07","22:20",0.0,24.4,80.1,1003.1,338.4,1.7,2.6,338.2,0.00,20.8,25.6,"22:13:04",1
"22/07/07","22:30",0.0,24.1,80.6,1003.4,311.2,1.1,2.0,327.8,0.00,20.6,25.6,"22:20:08",1
"22/07/07","22:40",0.0,23.9,81.2,1003.4,294.7,1.1,2.7,335.6,0.00,20.5,25.7,"22:37:52",1
"22/07/07","22:50",0.0,23.9,81.7,1003.6,325.5,1.6,2.5,335.0,0.00,20.6,25.6,"22:46:40",1
"22/07/07","23:00",0.0,23.8,81.9,1003.1,311.8,1.3,1.9,308.4,0.00,20.6,25.4,"22:54:32",1
"22/07/07","23:10",0.0,23.8,82.0,1003.1,291.4,1.1,1.6,322.0,0.00,20.6,25.5,"23:08:52",1
"22/07/07","23:20",0.0,23.6,82.1,1003.1,300.3,1.2,2.0,331.6,0.00,20.4,25.3,"23:10:32",1
"22/07/07","23:30",0.0,23.6,82.6,1003.4,297.1,1.2,2.6,330.8,0.00,20.5,25.4,"23:24:32",1
"22/07/07","23:40",0.0,23.6,82.8,1003.4,313.3,1.5,2.6,334.2,0.00,20.5,25.5,"23:33:52",1
"22/07/07","23:50",0.0,23.5,83.1,1003.6,275.6,1.0,1.4,305.0,0.00,20.5,25.2,"23:47:52",1
"22/07/07","24:00",0.0,23.5,83.3,1003.4,329.7,1.5,2.2,330.1,0.00,20.5,25.2,"23:53:52",1
